Location: Roanoke
(37.2710°N, 79.9420°W)
Time: 14:41:34
(UTC-04:00)

Daily predictions for brighter satellites

Satellite Brightness Start Highest point End
(mag) Time Altitude Azimuth Time Altitude Azimuth Time Altitude Azimuth
Cosmos 1633 2.8 20:27:12 10° SSE 20:30:39 46° E 20:34:09 10° NNE
Lacrosse 5 rocket 2.0 20:28:29 10° NNW 20:31:52 34° NE 20:35:24 10° ESE
Cosmos 407 Rocket 3.6 20:27:58 10° NNW 20:33:20 75° ENE 20:38:38 10° SSE
Cosmos 1378 Rocket 4.4 20:32:15 10° NNW 20:36:36 56° W 20:40:54 10° S
Cosmos 1190 Rocket 4.1 20:31:49 10° NNW 20:37:07 90° ENE 20:42:24 10° SSE
Cosmos 1782 Rocket 3.8 20:33:50 10° SSW 20:38:09 74° W 20:42:29 10° N
Cosmos 921 Rocket 3.1 20:34:30 10° SSW 20:38:40 81° WNW 20:42:51 10° NNE
Cosmos 2227 Rocket 4.4 20:34:44 10° NW 20:39:21 26° WSW 20:43:57 10° SSW
HJ-1C 3.8 20:36:44 10° S 20:40:07 67° W 20:43:32 10° NNW
Cosmos 2360 Rocket 3.8 20:40:02 10° SE 20:42:31 13° E 20:45:00 10° ENE
Cosmos 1980 Rocket 2.6 20:37:28 10° SSW 20:43:03 70° WNW 20:48:40 10° NNE
Resurs 01 Rocket 1.7 20:40:08 10° SSE 20:44:30 61° ENE 20:48:55 10° N
Helios 1B rocket 4.1 20:42:19 10° ENE 20:44:39 15° E 20:46:58 10° SE
Tiangong 1 2.7 20:50:15 10° NW 20:52:37 24° N 20:54:58 10° ENE
Cosmos 676 Rocket 4.0 20:48:18 10° NNW 20:53:38 75° ENE 20:58:57 10° SSE
Iridium 30 4.3 20:50:53 10° S 20:53:56 89° ENE 20:57:35 10° N
SeaSat 1 2.4 20:50:59 10° NNE 20:55:52 60° ESE 21:00:43 10° SSW
CZ-2D R/B 3.3 20:52:12 10° S 20:56:04 83° WSW 20:59:57 10° NNW
Cosmos 1975 Rocket 3.6 20:51:59 10° NNW 20:56:24 65° W 21:00:46 10° S
Cosmos 2151 Rocket 3.7 20:52:43 10° S 20:56:58 54° E 21:01:16 10° NNE
DELTA 2 R/B(2) 3.2 20:56:52 10° WNW 20:59:00 56° SSW 20:59:43 26° SE
SWAS 4.4 20:54:56 10° NNW 20:59:13 82° ENE 21:03:29 10° SSE
Meteor 2-4 Rocket 4.4 20:54:17 10° N 20:59:20 34° ENE 21:03:48 13° SE
Lacrosse 5 2.6 20:55:39 10° S 21:00:05 31° ESE 21:04:32 10° ENE
NOSS 2-3 (C) 4.0 20:56:29 10° S 21:00:50 45° ESE 21:05:45 10° NE
Cosmos 44 3.1 20:56:42 10° NNW 21:01:09 74° ENE 21:05:15 13° SE
DELTA 2 R/B (1) 3.6 20:57:57 10° WNW 21:03:34 79° SSW 21:07:58 17° ESE
Spot 2 Rocket 3.5 20:59:16 10° SSE 21:04:22 85° ENE 21:09:30 10° NNW
EXPRESS MD2 3.9 21:03:14 10° W 21:05:34 39° NNW 21:09:13 10° NE
Cosmos 1140 Rocket 3.5 21:00:36 10° NNW 21:05:49 66° ENE 21:10:47 11° SSE
Atlas Centaur 2 3.2 21:02:14 10° WSW 21:10:12 51° S 21:15:23 18° ESE
Cosmos 614 Rocket 4.0 21:06:30 10° NNW 21:11:35 63° ENE 21:15:50 15° SSE
Cosmos 1954 Rocket 4.1 21:09:56 10° NNW 21:15:16 84° WSW 21:20:35 10° SSE
CZ-4C R/B 4.4 21:09:25 10° NW 21:16:02 35° WSW 21:23:05 10° S
CZ-4B DEB 4.4 21:16:27 16° ENE 21:16:27 16° ENE 21:18:07 10° NNE
Cosmos 2227 4.3 21:13:37 10° NNW 21:19:16 78° WSW 21:24:47 11° SSE
Cosmos 1655 Rocket 4.4 21:13:34 10° SSW 21:19:47 69° W 21:26:07 10° N
Cosmos 1536 Rocket 3.5 21:16:22 10° N 21:20:41 67° E 21:24:03 16° SSE
Helios 1A 3.4 21:21:40 24° SE 21:23:48 44° ENE 21:27:51 10° N
Meteor 1-29 3.7 21:24:21 10° NNE 21:27:14 31° E 21:27:14 31° E
ERS-1 Rocket 3.9 21:26:24 24° ESE 21:28:15 31° ENE 21:32:38 10° N
H-2A R/B 3.7 21:29:52 15° ENE 21:30:37 15° ENE 21:33:31 10° NNE
Cosmos 1741 Rocket 4.1 21:25:28 10° N 21:30:39 58° ENE 21:33:28 26° SE
USA 186 3.5 21:29:03 10° SSW 21:32:05 33° W 21:35:12 10° NNW
BREEZE M DEB (TANK) 3.4 21:21:31 10° SW 21:32:39 52° SE 21:34:57 23° ENE
Envisat 3.4 21:28:28 10° S 21:33:29 65° WSW 21:38:32 10° NNW
Meteor 1-11 Rocket 3.9 21:27:39 10° S 21:33:32 82° W 21:39:19 10° N
ATLAS 3B R/B 3.8 21:29:17 10° NNW 21:34:55 27° NE 21:38:06 19° E
GPS 2-05 Rocket1 2.7 21:31:49 10° W 21:35:08 64° S 21:35:41 52° SE
NOSS 2-3 (D) 3.9 21:35:57 10° SW 21:40:32 81° WNW 21:45:49 10° NNE
SJ-11-01 4.4 21:38:43 18° S 21:42:14 76° WSW 21:46:55 10° NNW
ARGOS 3.9 21:45:46 31° E 21:47:02 35° ENE 21:51:50 10° N
GENESIS II 4.2 21:43:27 10° NW 21:47:23 76° WSW 21:48:25 46° SSE
Cosmos 2322 Rocket 2.9 21:46:16 10° SW 21:51:49 55° WNW 21:57:26 10° NNE
Cosmos 883 Rocket 4.4 21:46:33 10° N 21:52:40 75° E 21:56:04 28° SSE
Cosmos 2263 Rocket 2.1 21:47:57 10° NNW 21:53:40 74° ENE 21:55:53 38° SE
Delta 2 Rocket 3.8 21:53:49 10° WSW 21:57:46 48° S 21:57:46 48° S
Cosmos 1939 Rocket 4.1 21:56:10 17° SSW 21:58:48 38° W 22:02:31 10° NNW
Spot 1 4.4 21:57:12 33° SSE 21:59:33 87° WSW 22:04:41 10° NNW
Meteor 1-23 Rocket 4.1 21:54:37 10° N 22:00:13 86° E 22:02:41 35° S
Cosmos 1844 Rocket 4.3 21:57:16 10° N 22:01:15 19° NE 22:02:00 19° ENE
Cosmos 1110 Rocket 3.8 21:58:43 22° S 22:02:01 72° ESE 22:07:11 10° NNE
SL-16 R/B 3.3 21:57:13 10° SW 22:02:37 44° WNW 22:08:02 10° N
Cosmos 1536 4.1 22:01:51 10° SSW 22:05:41 40° W 22:09:33 10° N
ATLAS 2AS CENTAUR R/B 3.1 21:59:04 10° SW 22:06:42 82° WNW 22:14:51 10° NNE
YAOGAN 6 3.9 22:08:46 29° SW 22:09:45 35° W 22:13:02 10° NNW
Lacrosse 5 rocket 3.1 22:08:00 10° WNW 22:10:53 21° WSW 22:11:32 20° SW
Cosmos 2322 3.5 22:08:47 29° S 22:11:43 70° ESE 22:17:22 10° NNE
Cosmos 2219 Rocket 4.4 22:16:11 11° NE 22:16:11 11° NE 22:16:27 10° NE
Cosmos 1331 Rocket 3.8 22:14:52 36° SSW 22:17:04 87° ESE 22:22:18 10° NNE
Okean 1 Rocket 4.0 22:15:27 20° SW 22:18:11 46° W 22:22:24 10° N
Helios 1B rocket 3.8 22:16:16 10° N 22:20:04 38° WNW 22:23:21 13° SW
COSMOS 2428 3.6 22:22:19 33° ENE 22:22:19 33° ENE 22:25:53 10° NE
Cosmos 1238 Rocket 4.2 22:13:59 10° N 22:20:34 53° E 22:21:21 50° ESE
MetOp-B 4.0 22:19:54 61° SSE 22:20:53 86° ENE 22:26:16 10° NNW
Cosmos 1607 3.9 22:18:35 10° NNW 22:25:05 85° WSW 22:26:39 55° SSE
Cosmos 2360 Rocket 2.3 22:20:10 10° SSW 22:25:47 72° WNW 22:31:26 10° NNE
Okean 1-7 Rocket 3.6 22:22:02 10° N 22:26:31 75° W 22:26:34 75° WSW
Aureole 3 Rocket 4.3 22:19:22 10° N 22:27:44 60° ENE 22:28:50 54° ESE
Tiangong 1 3.9 22:25:39 10° WNW 22:26:22 16° NW 22:26:22 16° NW
Cosmos 2315 Rocket 4.1 22:23:28 10° N 22:29:42 75° W 22:31:51 43° S
SPOT 1/Viking Rocket 3.8 22:31:56 53° NE 22:31:56 53° NE 22:36:39 10° N
Cosmos 1025 Rocket 3.5 22:28:53 10° NNW 22:32:56 56° W 22:32:56 56° W
Cosmos 2333 Rocket 4.4 22:38:20 12° NE 22:38:20 12° NE 22:38:48 10° NE
SPOT 5 2.9 22:35:22 71° NNE 22:35:22 71° NNE 22:39:41 10° N
Lacrosse 5 3.1 22:38:10 10° WSW 22:42:55 40° NW 22:47:42 10° NNE
USA 245 4.1 22:47:46 68° W 22:47:46 68° W 22:52:12 10° NNW
Nimbus 7 Rocket 4.3 22:43:13 10° NNE 22:48:39 73° ENE 22:48:39 73° ENE
Cosmos 1745 Rocket 4.0 22:55:56 64° NE 22:55:56 64° NE 23:01:18 10° N
Atlas Centaur 2 3.6 22:52:26 10° W 22:58:01 33° SW 22:58:01 33° SW
NOSS 3-2 (A) 4.3 22:58:08 10° NNW 23:05:29 51° NE 23:06:18 49° ENE
USA 238 DEB 3.6 22:59:10 10° NNW 23:06:19 86° ENE 23:06:30 84° ESE
USA 238 3.6 22:59:16 10° NNW 23:06:25 85° ENE 23:06:37 84° E
Cosmos 1066 Rocket 4.5 23:02:27 10° NNW 23:07:04 62° NW 23:07:04 62° NW
H-2A R/B 2.7 23:10:30 50° WNW 23:10:30 50° WNW 23:14:31 10° NNW
ATLAS 3B R/B 2.9 23:19:28 10° NW 23:25:20 57° W 23:25:20 57° W
Terra 3.4 23:29:05 31° NNW 23:29:05 31° NNW 23:31:35 10° NNW
Cosmos 2278 Rocket 3.6 23:31:48 10° N 23:35:15 32° NNE 23:35:15 32° NNE
NOSS 3-2 (C) 4.2 23:35:46 10° NNW 23:42:56 65° NE 23:42:56 65° NE
Cosmos 1844 Rocket 3.8 23:39:58 10° NNW 23:43:39 39° NW 23:43:39 39° NW
